Погода в Гнездове

Россия / Тверская область     57°24′46″N   35°30′01″E
темп.,
°C
ветер,
м/с
пор.,
м/с
влажн.,
%
обл.,
%
осадки,
мм/ч
давл.,
гПа
погр.,
м
22 октября, пт
пт2200:00+10ююз61683100 0.1 987950
03:00+11ююз7157936 0.3 9861138
06:00+11зюз715745 0.4 9861360
09:00+8зюз613715 0.4 9881204
12:00+7юз51178100 0.5 9901038
15:00+8зюз7156498 0.7 9921660
18:00+6зюз7157011 0.1 9941239
21:00+5юз7157385 0.1 9961287
23 октября, сб
сб2300:00+6юз61468100 0.0 9961483
03:00+6юз7147395 0.0 9961381
06:00+5юз51377100 0.0 9961426
09:00+5ююз51090100 0.1 997969
12:00+4ююз4994100 0.1 998874
15:00+4зюз41088100 0.5 1000752
18:00+5зюз497697 0.3 1001796
21:00+3зюз41090100 0.3 1003828
24 октября, вс
вс2400:00+2з41096100 0.7 1004631
03:00+2зсз41096100 1.4 1005726
06:00+2сз51087100 0.2 1008947
09:00+1сз51296100 0.7 1010617
12:00+2ссз61184100 0.6 10131092
15:00+2ссз6127396 0.9 10161329
18:000ссз6127924 0.1 1020868
21:00−1ссз4118521 0.1 1023644
25 октября, пн
пн2500:00−2сз499020 0.0 1025469
03:00−2сз38905 0.0 1027332
06:00−3зсз268816 0.0 1028241
09:00−1з2582100 0.0 1029249
12:00+1зюз366177 0.0 1029544
15:00+3юз495682 0.0 1027715
18:00+2юз41265100 0.0 1026553
21:00+1юз41372100 0.0 1025587
26 октября, вт
вт2600:00+1юз41377100 0.0 1024512
03:00+1юз41380100 0.0 1023477
06:000юз41385100 0.0 1021423
09:00+1юз41380100 0.0 1020487
12:00+4юз51269100 0.0 1018593
15:00+4юз51269100 0.0 1016634
18:00+2юз41377100 0.0 1015537
21:00+2юз41379100 0.0 1014578